Flag for Mozambique Weather past 2 weeks in Beira, Mozambique

Now
70 °F

Passing clouds.


Feels Like: 70 °F
Forecast: 68 / 72 °F
Wind: 16 mph from Southeast

Location: Beira Airport

Current Time: Jul 30, 2014 at 1:31:25 AM

Latest Report: Jul 30, 2014 at 12:00 AM


Visibility: N/A

Pressure: 30.30 "Hg

Humidity: 78%

Dew point: 63 °F

Location of BeiraLocation

Historic Weather in Beira — Graph

°F

Beira temperature yesterday

Maximum temperature yesterday: 75 °F (at 12:00 PM)
Minimum temperature yesterday: 68 °F (at 5:00 AM)
Average temperature yesterday: 71 °F

Past Weeks' High & Low Weather Summary

 TemperatureHumidityPressure
High88 °F (Jul 18, 3:00 PM)100% (Jul 17, 5:00 AM)30.39 "Hg (Jul 17, 5:00 AM)
Low59 °F (Jul 24, 6:00 AM)31% (Jul 18, 3:00 PM)29.89 "Hg (Jul 18, 3:00 PM)
Average72 °F80%30.13 "Hg
* Reported Jul 16 11:00 AM — Midnight between Jul 29 and Jul 30, Beira, Weather by CustomWeather, © 2014

Note: Actual official high and low records may vary slightly from our data, if they occured in-between our weather recording intervals... More about our weather records

Advertising

Beira weather history for previous 24 hours

 ConditionsComfort  
Time TempWeatherWind HumidityBarometerVisibility
12:00 AM
Jul 30
70 °FPassing clouds.16 mph78%30.30 "HgN/A
11:00 PM
Jul 29
70 °FPassing clouds.16 mph78%30.30 "HgN/A
10:00 PM70 °FPassing clouds.15 mph78%30.33 "HgN/A
9:00 PM70 °FPassing clouds.16 mph78%30.33 "HgN/A
7:00 PM72 °FPassing clouds.16 mph78%30.30 "HgN/A
6:00 PM72 °FPassing clouds.15 mph73%30.33 "HgN/A
5:00 PM73 °FScattered clouds.18 mph69%30.30 "HgN/A
4:00 PM73 °FBroken clouds.16 mph69%30.30 "HgN/A
3:00 PM75 °FScattered clouds.16 mph69%30.30 "HgN/A
2:00 PM73 °FBroken clouds.14 mph78%30.30 "HgN/A
1:00 PM73 °FBroken clouds.13 mph78%30.36 "Hg6 mi
12:00 PM75 °FScattered clouds.15 mph74%30.36 "HgN/A
11:00 AM73 °FScattered clouds.12 mph78%30.39 "HgN/A
10:00 AM72 °FScattered clouds.15 mph78%30.39 "HgN/A
9:00 AM70 °FScattered clouds.15 mph83%30.39 "HgN/A
8:00 AM70 °FPartly sunny.12 mph83%30.39 "HgN/A
7:00 AM68 °FBroken clouds.17 mph94%30.36 "HgN/A
6:00 AM68 °FPartly cloudy.16 mph94%30.36 "HgN/A
5:00 AM68 °FPassing clouds.15 mph94%30.33 "HgN/A
4:00 AM70 °FPassing clouds.20 mph94%30.33 "HgN/A
2:00 AM70 °FPassing clouds.16 mph94%30.30 "HgN/A
Weather by CustomWeather, © 2014

See weather overviewHow to use our weather pages